Location: Alpha Ridge Park
(39.3209°N, 76.9128°W)
Time: 15:07:36
(UTC-05:00)

N. Korean satellite - Visible Passes

Search period start: 21 January 2022 00:00
Search period end: 31 January 2022 00:00
Orbit: 447 x 491 km, 97.3° (Epoch: 21 January)

Date Brightness Start Highest point End Pass type
(mag) Time Alt. Az. Time Alt. Az. Time Alt. Az.
21 Jan 9.6 04:51:14 10° NNE 04:58:41 - SSE 04:51:20 11° NNE visible
21 Jan 8.8 06:25:18 10° NNW 06:25:23 10° NW 06:25:23 10° NW visible
22 Jan10.204:29:17SSE04:29:17SSE04:22:15NEvisible
22 Jan 8.4 05:55:11 10° N 06:03:19 - SW 05:56:18 18° NNW visible
23 Jan 8.3 05:25:46 10° N 05:33:53 - SSW 05:27:13 23° N visible
24 Jan 8.9 04:56:47 10° NNE 05:04:26 - S 04:58:08 20° NE visible
24 Jan 8.5 06:31:21 10° NW 06:32:12 12° NW 06:32:12 12° NW visible
25 Jan 9.7 04:28:30 10° NE 04:34:58 - SSE 04:29:03 12° ENE visible
25 Jan 7.8 06:00:55 10° NNW 06:09:00 - SW 06:03:07 24° NW visible
26 Jan 7.1 05:31:21 10° N 05:39:29 - SSW 05:34:03 45° NNW visible
27 Jan 7.9 05:02:15 10° NNE 05:09:57 - S 05:04:58 38° ENE visible
27 Jan 8.6 06:37:31 10° NW 06:38:27 11° WNW 06:39:03 10° WNW visible
28 Jan 9.3 04:33:45 10° NE 04:40:23 - SSE 04:35:55 19° E visible
28 Jan 7.7 06:06:34 10° NNW 06:09:30 23° WNW 06:09:59 23° W visible
29 Jan 6.5 05:36:51 10° N 05:40:25 56° WNW 05:40:59 49° WSW visible
30 Jan 7.2 05:07:36 10° NNE 05:11:12 55° E 05:11:59 44° SSE visible
